Regional Weather Roundup
Issued by NWS

Home | Current Version | Previous Version | Graphics & Text | Print | Product List | Glossary On
Versions: 1 2 3 4 5 6 7 8 9 10 11 12 13 14 15 16 17 18 19 20 21 22 23 24 25 26 27 28 29 30 31 32 33 34 35 36 37 38 39 40 41 42 43 44 45 46 47 48 49 50
536
ASUS43 KFSD 182310
RWRSD

WEATHER ROUNDUP FOR SOUTH DAKOTA
NATIONAL WEATHER SERVICE SIOUX FALLS SD
500 PM CST SUN FEB 18 2018

NOTE: "FAIR" INDICATES FEW OR NO CLOUDS BELOW 12,000 FEET WITH NO
SIGNIFICANT WEATHER AND/OR OBSTRUCTIONS TO VISIBILITY.


SDZ001>005-009-010-012>017-190000-
NORTHWEST AND NORTH CENTRAL SOUTH DAKOTA

CITY           SKY/WX    TMP DP  RH WIND       PRES   REMARKS
BUFFALO          N/A      9   3  77 N25       29.75R WCI -12
FAITH            N/A     10   7  87 N26       29.78R WCI -11
MOBRIDGE       LGT SNOW  16   9  74 N22G29    29.80R WCI  -2
$$

SDZ012>016-024>037-041>051-057-063-072>074-190000-
SOUTHWEST AND SOUTH CENTRAL SOUTH DAKOTA

CITY           SKY/WX    TMP DP  RH WIND       PRES   REMARKS
RAPID CTY ARPT LGT SNOW   9   4  80 N25G32    29.76R WCI -12
PIERRE         LGT SNOW  18  15  88 N21       29.77R FOG     WCI   1
CUSTER         FOG       19  17  92 VRB3      29.53R VSB 3/4
ELLSWORTH AFB  BLWGSNOW   9   7  90 N25G35    29.75  VSB 1/4 WCI -12
PHILIP         LGT SNOW  14  10  84 N23       29.78S FOG     WCI  -5
PINE RIDGE     FLURRIES  18  12  77 N22G29    29.70R WCI   1
SPEARFISH      LGT SNOW   7   3  85 NW9       29.77R VSB 3/4 WCI  -7
WINNER         CLOUDY    24  20  84 N25G33    29.70R WCI   8
$$

SDZ004>011-016>023-039-040-190000-
NORTHEAST SOUTH DAKOTA

CITY           SKY/WX    TMP DP  RH WIND       PRES   REMARKS
ABERDEEN       CLOUDY    19  12  74 N23G33    29.78R WCI   2
WATERTOWN      CLOUDY    24  19  81 N21G29    29.63R WCI   9
BROOKINGS      CLOUDY    33  24  69 N16G24    29.59R WCI  23
SISSETON         N/A     22  16  78 N25       29.73R WCI   5
$$

SDZ017-020-022-023-036>040-048>070-190000-
SOUTHEAST SOUTH DAKOTA

CITY           SKY/WX    TMP DP  RH WIND       PRES   REMARKS
SIOUX FALLS    CLOUDY    39  31  72 NW15      29.57R
HURON          CLOUDY    25  19  78 N28G33    29.70R WCI   9
CHAMBERLAIN    CLOUDY    28  24  85 NW18G24   29.72R WCI  15
MITCHELL       PTSUNNY   30  24  78 NW22      29.67R WCI  17
YANKTON        SUNNY     36  29  75 NW24      29.61R
$$

ABBREVIATIONS USED IN REMARKS
   TC - TEMPERATURE IN CELSIUS
  WCI - WIND CHILL INDEX
   HX - HEAT INDEX
  VSB - VISIBILITY





USA.gov is the U.S. government's official web portal to all federal, state and local government web resources and services.